TimeEST,TemperatureF,Dew PointF,Humidity,Sea Level PressureIn,VisibilityMPH,Wind Direction,Wind SpeedMPH,Gust SpeedMPH,PrecipitationIn,Events,Conditions,WindDirDegrees,DateUTC
12:02 AM,50.0,44.6,82,29.95,10.0,South,8.1,-,N/A,,Clear,180,2013-01-12 05:02:00
12:42 AM,48.2,42.8,82,29.94,10.0,South,8.1,-,N/A,,Clear,170,2013-01-12 05:42:00
1:02 AM,48.2,42.8,82,29.95,10.0,South,5.8,-,N/A,,Clear,180,2013-01-12 06:02:00
1:23 AM,46.4,42.8,87,29.94,10.0,South,5.8,-,N/A,,Clear,170,2013-01-12 06:23:00
1:42 AM,46.4,42.8,87,29.93,10.0,SSE,4.6,-,N/A,,Clear,160,2013-01-12 06:42:00
2:02 AM,46.4,44.6,93,29.94,10.0,South,6.9,-,N/A,,Clear,190,2013-01-12 07:02:00
2:23 AM,48.2,44.6,87,29.95,10.0,South,6.9,-,N/A,,Clear,190,2013-01-12 07:23:00
2:42 AM,48.2,44.6,87,29.96,10.0,South,6.9,-,N/A,,Clear,190,2013-01-12 07:42:00
3:02 AM,48.2,44.6,87,29.95,10.0,South,9.2,-,N/A,,Clear,190,2013-01-12 08:02:00
3:22 AM,48.2,46.4,93,29.96,10.0,South,8.1,-,N/A,,Clear,190,2013-01-12 08:22:00
3:42 AM,46.4,44.6,93,29.97,10.0,South,6.9,-,N/A,,Clear,170,2013-01-12 08:42:00
4:02 AM,46.4,44.6,93,29.96,7.0,South,4.6,-,N/A,,Clear,170,2013-01-12 09:02:00
4:22 AM,46.4,44.6,93,29.96,5.0,South,5.8,-,N/A,,Clear,170,2013-01-12 09:22:00
4:42 AM,44.6,44.6,100,29.97,4.0,South,5.8,-,N/A,,Clear,170,2013-01-12 09:42:00
5:02 AM,46.4,44.6,93,29.97,3.0,SSE,5.8,-,N/A,,Mostly Cloudy,160,2013-01-12 10:02:00
5:22 AM,46.4,44.6,93,29.97,4.0,South,4.6,-,N/A,,Scattered Clouds,180,2013-01-12 10:22:00
5:42 AM,44.6,44.6,100,29.96,2.5,SSE,5.8,-,N/A,,Clear,160,2013-01-12 10:42:00
6:03 AM,44.6,44.6,100,29.97,0.2,SSE,3.5,-,N/A,Fog,Fog,150,2013-01-12 11:03:00
6:22 AM,44.6,44.6,100,29.97,0.2,SSE,4.6,-,N/A,Fog,Fog,160,2013-01-12 11:22:00
6:42 AM,44.6,44.6,100,29.97,0.2,South,6.9,-,N/A,Fog,Fog,170,2013-01-12 11:42:00
7:03 AM,46.4,44.6,93,29.98,0.8,South,8.1,-,N/A,,Mostly Cloudy,190,2013-01-12 12:03:00
7:22 AM,46.4,44.6,93,29.99,0.8,South,8.1,-,N/A,,Mostly Cloudy,180,2013-01-12 12:22:00
7:42 AM,46.4,46.4,100,30.00,0.2,South,6.9,-,N/A,Fog,Fog,180,2013-01-12 12:42:00
8:03 AM,48.2,46.4,93,30.00,0.2,South,6.9,-,N/A,Fog,Fog,180,2013-01-12 13:03:00
8:22 AM,48.2,46.4,93,30.01,0.2,South,6.9,-,N/A,Fog,Fog,170,2013-01-12 13:22:00
8:42 AM,48.2,48.2,100,30.02,1.0,South,8.1,-,N/A,,Overcast,180,2013-01-12 13:42:00
9:03 AM,50.0,48.2,94,30.03,0.2,South,6.9,-,N/A,Fog,Fog,170,2013-01-12 14:03:00
9:22 AM,50.0,48.2,94,30.03,0.2,South,9.2,-,N/A,Fog,Fog,170,2013-01-12 14:22:00
9:42 AM,50.0,50.0,100,30.03,0.5,SSW,8.1,-,N/A,Fog,Fog,200,2013-01-12 14:42:00
10:03 AM,51.8,50.0,94,30.03,5.0,SSW,8.1,-,N/A,,Mostly Cloudy,210,2013-01-12 15:03:00
10:22 AM,51.8,51.8,100,30.04,7.0,SSW,9.2,-,N/A,,Scattered Clouds,210,2013-01-12 15:22:00
10:42 AM,53.6,51.8,94,30.03,7.0,SSW,8.1,-,N/A,,Scattered Clouds,210,2013-01-12 15:42:00
11:02 AM,53.6,51.8,94,30.03,10.0,SSW,8.1,-,N/A,,Scattered Clouds,200,2013-01-12 16:02:00
11:22 AM,53.6,53.6,100,30.02,7.0,SSW,8.1,-,N/A,,Scattered Clouds,200,2013-01-12 16:22:00
11:42 AM,55.4,53.6,94,30.02,10.0,SW,5.8,-,N/A,,Scattered Clouds,220,2013-01-12 16:42:00
12:03 PM,55.4,51.8,88,30.01,10.0,SW,5.8,-,N/A,,Overcast,230,2013-01-12 17:03:00
12:22 PM,55.4,53.6,94,30.01,10.0,SW,9.2,-,N/A,,Mostly Cloudy,220,2013-01-12 17:22:00
1:03 PM,55.4,51.8,88,30.00,10.0,SW,8.1,-,N/A,,Clear,220,2013-01-12 18:03:00
1:22 PM,55.4,53.6,94,30.00,10.0,SSW,5.8,-,N/A,,Scattered Clouds,200,2013-01-12 18:22:00
1:42 PM,57.2,53.6,88,30.00,10.0,South,5.8,-,N/A,,Scattered Clouds,190,2013-01-12 18:42:00
2:02 PM,59.0,53.6,82,30.00,10.0,South,9.2,-,N/A,,Mostly Cloudy,190,2013-01-12 19:02:00
2:43 PM,59.0,53.6,82,30.00,10.0,South,8.1,-,N/A,,Scattered Clouds,190,2013-01-12 19:43:00
3:02 PM,59.0,53.6,82,30.00,10.0,SSW,6.9,-,N/A,,Clear,200,2013-01-12 20:02:00
3:22 PM,60.8,55.4,82,29.99,10.0,South,8.1,-,N/A,,Clear,190,2013-01-12 20:22:00
3:43 PM,60.8,53.6,77,29.99,10.0,South,10.4,-,N/A,,Clear,190,2013-01-12 20:43:00
4:02 PM,60.8,53.6,77,29.99,10.0,South,8.1,-,N/A,,Clear,190,2013-01-12 21:02:00
4:22 PM,60.8,53.6,77,29.99,10.0,SSW,10.4,-,N/A,,Scattered Clouds,200,2013-01-12 21:22:00
4:43 PM,59.0,53.6,82,29.98,10.0,South,6.9,-,N/A,,Scattered Clouds,170,2013-01-12 21:43:00
5:02 PM,59.0,53.6,82,29.98,10.0,SSE,5.8,-,N/A,,Clear,160,2013-01-12 22:02:00
5:22 PM,57.2,53.6,88,29.98,10.0,South,4.6,-,N/A,,Clear,170,2013-01-12 22:22:00
5:43 PM,55.4,51.8,88,29.97,10.0,SSE,3.5,-,N/A,,Clear,160,2013-01-12 22:43:00
6:02 PM,55.4,53.6,94,29.96,10.0,SSE,3.5,-,N/A,,Scattered Clouds,160,2013-01-12 23:02:00
6:22 PM,55.4,53.6,94,29.96,10.0,SSE,4.6,-,N/A,,Clear,160,2013-01-12 23:22:00
6:43 PM,55.4,53.6,94,29.96,10.0,SSE,4.6,-,N/A,,Scattered Clouds,160,2013-01-12 23:43:00
7:02 PM,55.4,51.8,88,29.96,7.0,South,3.5,-,N/A,,Mostly Cloudy,170,2013-01-13 00:02:00
7:22 PM,55.4,53.6,94,29.94,7.0,SSE,6.9,-,N/A,,Mostly Cloudy,150,2013-01-13 00:22:00
7:43 PM,55.4,53.6,94,29.93,7.0,SSE,5.8,-,N/A,,Overcast,150,2013-01-13 00:43:00
8:02 PM,55.4,53.6,94,29.93,7.0,SSE,5.8,-,N/A,,Overcast,160,2013-01-13 01:02:00
8:22 PM,55.4,53.6,94,29.92,5.0,SSE,6.9,-,N/A,,Overcast,150,2013-01-13 01:22:00
8:42 PM,57.2,55.4,94,29.92,5.0,SSE,6.9,-,N/A,,Overcast,150,2013-01-13 01:42:00
9:02 PM,59.0,55.4,88,29.90,5.0,SSE,9.2,-,N/A,,Overcast,150,2013-01-13 02:02:00
9:22 PM,59.0,57.2,94,29.89,3.0,SE,10.4,-,N/A,,Overcast,140,2013-01-13 02:22:00
9:42 PM,59.0,57.2,94,29.88,4.0,SSE,8.1,-,N/A,Rain,Light Rain,150,2013-01-13 02:42:00
10:02 PM,59.0,59.0,100,29.87,4.0,SSE,9.2,-,N/A,,Overcast,150,2013-01-13 03:02:00
10:22 PM,59.0,59.0,100,29.87,5.0,SSE,10.4,-,N/A,,Overcast,160,2013-01-13 03:22:00
10:42 PM,59.0,59.0,100,29.86,7.0,SSE,8.1,-,N/A,,Overcast,160,2013-01-13 03:42:00
11:02 PM,60.8,59.0,94,29.85,10.0,South,12.7,-,N/A,,Overcast,170,2013-01-13 04:02:00
11:23 PM,60.8,59.0,94,29.85,10.0,South,13.8,19.6,0.01,Rain,Rain,180,2013-01-13 04:23:00
11:42 PM,60.8,59.0,94,29.84,10.0,SSE,17.3,21.9,0.01,,Overcast,160,2013-01-13 04:42:00